Weather Service Report


851 
ASUS44 KJAN 201910
RWRMS 

MISSISSIPPI HOURLY WEATHER ROUNDUP
NATIONAL WEATHER SERVICE JACKSON MS
200 PM CDT SUN APR 20 2014

NOTE: "FAIR: INDICATES FEW OR NO CLOUDS BELOW 12,000 FEET WITH NO
SIGNIFICANT WEATHER AND/OR OBSTRUCTIONS TO VISIBILITY.

MSZ001>002-007>008-010>013-018>021-025>028-034>036-202000-
NORTHWEST MISSISSIPPI
  
CITY           SKY/WX    TMP DP  RH WIND       PRES   REMARKS
CLARKSDALE       N/A     77  50  38 CALM      30.16F                  
CLEVELAND      FAIR      78  50  37 S5        30.16F                  
GREENWOOD      MOSUNNY   78  49  35 CALM      30.16F                  
GREENVILLE     PTSUNNY   76  49  38 S7        30.15F                  
GRENADA        FAIR      77  50  38 SE5       30.17F                  
OLIVE BRANCH   MOSUNNY   77  46  33 SE5       30.16F                  
OXFORD         FAIR      75  46  35 S6        30.18F                  
TUNICA         PTCLDY    79  45  29 S5        30.16F                  
$$

MSZ003>006-009-014>017-022>024-029>033-037>039-202000-
NORTHEAST MISSISSIPPI
  
CITY           SKY/WX    TMP DP  RH WIND       PRES   REMARKS
BELMONT        FAIR      75  43  32 CALM      30.18F                  
COLUMBUS AFB   SUNNY     76  45  32 VRB3      30.18F                  
CORINTH        FAIR      77  43  29 CALM      30.18F                  
GOLDN TRIANGLE SUNNY     73  48  40 SE5       30.21F                  
STARKVILLE     FAIR      73  48  40 E3        30.18F                  
TUPELO         SUNNY     76  47  35 VRB3      30.18F                  
$$

MSZ040-058-202000-
CENTRAL MISSISSIPPI
  
CITY           SKY/WX    TMP DP  RH WIND       PRES   REMARKS
JACKSON INTL   MOSUNNY   78  49  35 CALM      30.16F                  
JACKSON HAWKNS SUNNY     80  45  28 VRB3      30.17F                  
MERIDIAN KEY   SUNNY     76  50  40 N6        30.18F                  
MERIDIAN NAS   MOSUNNY   75  50  41 NE10      30.18F                  
RAYMOND        FAIR      81  73  78 N3        30.15F                  
VICKSBURG      SUNNY     81  52  36 NE8       30.15F                  
$$

MSZ059>079-202000-
SOUTH MISSISSIPPI
  
CITY           SKY/WX    TMP DP  RH WIND       PRES   REMARKS
BROOKHAVEN     FAIR      79  52  38 SE7       30.18F                  
COLUMBIA       FAIR      79  48  34 MISG      30.15F                  
HATTIESBURG    LGT RAIN  78  53  41 N8        30.17F                  
MCCOMB         SUNNY     79  48  33 CALM      30.16F                  
NATCHEZ        SUNNY     81  52  36 SW6       30.15F                  
PINE BELT      SUNNY     77  52  41 NE12      30.19S                  
$$

MSZ080>082-202000-
COASTAL MISSISSIPPI
  
CITY           SKY/WX    TMP DP  RH WIND       PRES   REMARKS
BAY ST LOUIS   SUNNY     81  48  32 N9        30.15F                  
BILOXI         SUNNY     76  60  57 S12       30.15F                  
PASCAGOULA     SUNNY     78  55  44 N9G20     30.14F                  
GULFPORT       SUNNY     77  58  51 S8        30.14F                  
$$

Return to Home page


Western Regional Climate Center, wrcc@dri.edu